Pagina principale
METAR-TAF:

METAR-TAF

Aeroporti :

Pian Rosa, Italia

latitudine: 45-56N, longitudine: 007-42E, altezza: 3480 m

Osservazione

Il bollettino è stato emesso 46 minuti fa, alle 11:55 UTC
Vento 15 kt da nord-est
Temperature -13°C
Umidità 27%
Pressione 1019 hPa

METAR: LIMH 091155Z AUTO 05015KT //// M13/M28 Q1019

Ora: 13:41 (12:41 UTC)


TAF: mancante

Osservazioni e previsioni meteorologiche di più di 4000 aeroporti (messaggi METAR e TAF).

Le stazioni disponibili sono rappresentate dai dischi gialli e rossi sulla carta.

Puntare il mouse per vedere il nome della stazione.

Clicca sopra per visualizzare le osservazioni e previsioni meteorologiche.

Per cambiare la mappa : fare clic sui pulsanti verdi con una croce nera per ingrandire, il pulsante verde con un trattino per diminuire, o sulla freccia verde per le mappe adiacenti.


METAR-TAF: